Weather History for Glenwood, MN

Change the Weather History Date:

Tuesday, January 24, 2012

  Actual Average Record
Temperature  
Mean Temperature 18 °F -  
Max Temperature 24 °F 21 °F 50 °F (1981)
Min Temperature 12 °F 4 °F -32 °F (1952)
Degree Days  
Heating Degree Days 47    
Moisture  
Dew Point 14 °F    
Average Humidity 79    
Maximum Humidity 93    
Minimum Humidity 68    
Precipitation  
Precipitation 0.00 in - - ()
Sea Level Pressure  
Sea Level Pressure 30.12 in    
Wind  
Wind Speed 8 mph (SW)    
Max Wind Speed 13 mph    
Max Gust Speed -    
Visibility 8 miles    
Events Snow    
Averages and records for this station are not official NWS values.
T = Trace of Precipitation, MM = Missing Value Source: NWS Daily Summary

Daily Weather History Graph

Daily Weather History Graph

Search for Another Location

Airport:

Trip Planner

Search our weather history database for the weather conditions in past years. The results will help you decide how hot, cold, wet, or windy it might be!

Date:

Astronomy

Jan. 24, 2012 Rise Set
Actual Time 7:51 AM CST 5:15 PM CST
Civil Twilight 7:19 AM CST 5:47 PM CST
Nautical Twilight 6:43 AM CST 6:24 PM CST
Astronomical Twilight 6:07 AM CST 6:59 PM CST
Moon 8:14 AM CST (1/24) 7:16 PM CST (1/24)
Length of Visible Light 10h 28m
Length of Day
9h 23m
New Moon, 2% of the Moon is Illuminated
Jan 24
New Moon
Jan 30
First Quarter
Feb 7
Full
Feb 14
Last Quarter
Feb 21
New

Hourly Weather History & Observations

Time (CST) Temp. Windchill Dew Point Humidity Pressure Visibility Wind Dir Wind Speed Gust Speed Precip Events Conditions
12:14 AM 17.6 °F 5.0 °F 12.2 °F 79% 29.94 in 7.0 mi WNW 11.5 mph - N/A   Overcast
12:33 AM 17.6 °F 5.0 °F 12.2 °F 79% 29.95 in 7.0 mi WNW 11.5 mph - N/A   Overcast
12:54 AM 17.6 °F 7.3 °F 12.2 °F 79% 29.95 in 7.0 mi WNW 8.1 mph - N/A   Overcast
1:14 AM 17.6 °F 6.4 °F 12.2 °F 79% 29.96 in 7.0 mi WNW 9.2 mph - N/A   Overcast
1:34 AM 17.6 °F 8.2 °F 12.2 °F 79% 29.96 in 7.0 mi WNW 6.9 mph - N/A   Overcast
1:54 AM 17.6 °F 6.4 °F 12.2 °F 79% 29.97 in 7.0 mi WNW 9.2 mph - N/A   Overcast
2:34 AM 17.6 °F 7.3 °F 12.2 °F 79% 30.00 in 7.0 mi WNW 8.1 mph - N/A   Overcast
2:54 AM 17.6 °F 6.4 °F 12.2 °F 79% 30.01 in 7.0 mi WNW 9.2 mph - N/A   Overcast
3:14 AM 17.6 °F 6.4 °F 12.2 °F 79% 30.02 in 7.0 mi WNW 9.2 mph - N/A   Overcast
3:34 AM 17.6 °F 7.3 °F 12.2 °F 79% 30.03 in 7.0 mi West 8.1 mph - N/A   Overcast
3:54 AM 17.6 °F 4.3 °F 12.2 °F 79% 30.03 in 10.0 mi WNW 12.7 mph - N/A   Overcast
4:14 AM 17.6 °F 4.3 °F 12.2 °F 79% 30.03 in 7.0 mi WNW 12.7 mph - N/A Snow Light Snow
4:34 AM 15.8 °F 4.2 °F 12.2 °F 86% 30.04 in 7.0 mi West 9.2 mph - N/A   Overcast
5:14 AM 15.8 °F 5.1 °F 12.2 °F 86% 30.05 in 7.0 mi WNW 8.1 mph - N/A Snow Light Snow
5:34 AM 15.8 °F 7.2 °F 12.2 °F 86% 30.06 in 5.0 mi NW 5.8 mph - N/A Snow Light Snow
5:54 AM 15.8 °F 3.4 °F 10.4 °F 79% 30.08 in 10.0 mi West 10.4 mph - N/A   Overcast
6:13 AM 15.8 °F 7.2 °F 12.2 °F 86% 30.10 in 7.0 mi WNW 5.8 mph - N/A Snow Light Snow
6:34 AM 15.8 °F 5.1 °F 10.4 °F 79% 30.11 in 10.0 mi WNW 8.1 mph - N/A   Overcast
6:54 AM 15.8 °F 7.2 °F 10.4 °F 79% 30.11 in 10.0 mi WNW 5.8 mph - N/A   Overcast
7:14 AM 15.8 °F 7.2 °F 10.4 °F 79% 30.11 in 10.0 mi WNW 5.8 mph - N/A   Overcast
7:34 AM 15.8 °F 8.6 °F 10.4 °F 79% 30.12 in 10.0 mi WNW 4.6 mph - N/A   Overcast
8:14 AM 14.0 °F 8.2 °F 8.6 °F 79% 30.13 in 10.0 mi WNW 3.5 mph - N/A   Mostly Cloudy
8:34 AM 12.2 °F - 8.6 °F 85% 30.12 in 7.0 mi Calm Calm - N/A   Scattered Clouds
8:54 AM 15.8 °F - 10.4 °F 79% 30.13 in 7.0 mi Calm Calm - N/A   Clear
9:34 AM 17.6 °F - 10.4 °F 73% 30.15 in 10.0 mi Calm Calm - N/A   Clear
9:54 AM 17.6 °F - 10.4 °F 73% 30.15 in 10.0 mi Calm Calm - N/A   Clear
10:14 AM 17.6 °F - 12.2 °F 79% 30.16 in 10.0 mi Calm Calm - N/A   Clear
10:34 AM 17.6 °F 12.3 °F 12.2 °F 79% 30.17 in 10.0 mi South 3.5 mph - N/A   Clear
10:54 AM 19.4 °F 12.8 °F 12.2 °F 74% 30.18 in 10.0 mi South 4.6 mph - N/A   Clear
11:14 AM 19.4 °F 12.8 °F 12.2 °F 74% 30.18 in 10.0 mi South 4.6 mph - N/A   Clear
11:34 AM 21.2 °F 13.6 °F 12.2 °F 68% 30.18 in 10.0 mi SSW 5.8 mph - N/A   Clear
11:54 AM 21.2 °F 13.6 °F 12.2 °F 68% 30.18 in 10.0 mi SW 5.8 mph - N/A   Clear
12:34 PM 23.0 °F 14.7 °F 14.0 °F 68% 30.17 in 10.0 mi South 6.9 mph - N/A   Unknown
12:54 PM 23.0 °F 17.0 °F 14.0 °F 68% 30.17 in 10.0 mi SSW 4.6 mph - N/A   Unknown
1:14 PM 23.0 °F 18.4 °F 14.0 °F 68% 30.17 in 10.0 mi South 3.5 mph - N/A   Unknown
1:34 PM 23.0 °F 15.8 °F 15.8 °F 74% 30.17 in 10.0 mi South 5.8 mph - N/A   Unknown
1:54 PM 23.0 °F 15.8 °F 15.8 °F 74% 30.17 in 10.0 mi South 5.8 mph - N/A   Scattered Clouds
2:14 PM 24.8 °F 16.1 °F 15.8 °F 69% 30.17 in 10.0 mi South 8.1 mph - N/A   Scattered Clouds
2:34 PM 24.8 °F 16.1 °F 15.8 °F 69% 30.17 in 10.0 mi South 8.1 mph - N/A   Scattered Clouds
3:14 PM 24.8 °F 16.1 °F 15.8 °F 69% 30.16 in 10.0 mi SSE 8.1 mph - N/A   Scattered Clouds
3:54 PM 24.8 °F 19.1 °F 15.8 °F 69% 30.16 in 10.0 mi South 4.6 mph - N/A   Scattered Clouds
4:14 PM 24.8 °F 16.9 °F 15.8 °F 69% 30.17 in 10.0 mi South 6.9 mph - N/A   Mostly Cloudy
4:33 PM 23.0 °F 13.1 °F 17.6 °F 80% 30.19 in 10.0 mi South 9.2 mph - N/A   Scattered Clouds
4:54 PM 23.0 °F 13.9 °F 17.6 °F 80% 30.20 in 10.0 mi South 8.1 mph - N/A   Scattered Clouds
5:14 PM 23.0 °F 13.9 °F 17.6 °F 80% 30.20 in 10.0 mi SSW 8.1 mph - N/A   Scattered Clouds
5:34 PM 23.0 °F 13.9 °F 17.6 °F 80% 30.20 in 10.0 mi SSW 8.1 mph - N/A   Mostly Cloudy
5:54 PM 23.0 °F 13.9 °F 17.6 °F 80% 30.21 in 10.0 mi SSW 8.1 mph - N/A   Overcast
6:13 PM 23.0 °F 14.7 °F 17.6 °F 80% 30.21 in 7.0 mi SSW 6.9 mph - N/A   Overcast
6:33 PM 23.0 °F 15.8 °F 17.6 °F 80% 30.21 in 7.0 mi SSW 5.8 mph - N/A   Overcast
6:54 PM 23.0 °F 18.4 °F 19.4 °F 86% 30.21 in 5.0 mi SSW 3.5 mph - N/A   Mostly Cloudy
7:14 PM 21.2 °F 13.6 °F 19.4 °F 93% 30.21 in 4.0 mi South 5.8 mph - N/A Snow Light Snow
7:33 PM 21.2 °F 13.6 °F 19.4 °F 93% 30.20 in 7.0 mi South 5.8 mph - N/A   Scattered Clouds
7:54 PM 21.2 °F 11.7 °F 17.6 °F 86% 30.21 in 7.0 mi South 8.1 mph - N/A   Mostly Cloudy
8:13 PM 21.2 °F 11.7 °F 17.6 °F 86% 30.20 in 7.0 mi South 8.1 mph - N/A   Overcast
8:34 PM 21.2 °F 12.6 °F 19.4 °F 93% 30.20 in 7.0 mi South 6.9 mph - N/A   Overcast
8:54 PM 21.2 °F 11.7 °F 19.4 °F 93% 30.20 in 7.0 mi South 8.1 mph - N/A Snow Light Snow
9:14 PM 21.2 °F 12.6 °F 19.4 °F 93% 30.19 in 5.0 mi South 6.9 mph - N/A Snow Light Snow
9:53 PM 23.0 °F 17.0 °F 19.4 °F 86% 30.18 in 2.5 mi SSE 4.6 mph - N/A Snow Light Snow
10:14 PM 21.2 °F 11.7 °F 19.4 °F 93% 30.19 in 1.0 mi South 8.1 mph - N/A Snow Snow
10:54 PM 21.2 °F 9.5 °F 19.4 °F 93% 30.20 in 1.0 mi South 11.5 mph - N/A Snow Snow
11:14 PM 21.2 °F 9.5 °F 19.4 °F 93% 30.20 in 1.8 mi South 11.5 mph - N/A Snow Light Snow
11:54 PM 21.2 °F 13.6 °F 19.4 °F 93% 30.19 in 1.8 mi SSW 5.8 mph - 0.01 in Snow Light Snow
11:55 PM 21.2 °F 13.6 °F 19.4 °F 93% 30.19 in 1.8 mi SSW 5.8 mph - 0.01 in Snow Light Snow